Theta_e
307 306 306 305 305 306 307 308 308 310 311 309 310 318 320 324 327 330 331 332 331 332 331 330 329 329 327 326 325 324 322 322 323 320 321 321 322 322 323 324 323 322 322
303 303 303 303 303 303 305 306 309 310 313 312 311 315 320 323 326 329 331 331 331 331 330 330 329 328 328 326 325 324 322 322 323 319 316 312 315 319 321 322 322 321 321
303 300 300 300 300 301 302 305 306 306 307 309 315 315 319 321 324 328 328 329 330 329 329 329 329 328 327 326 325 324 323 321 321 322 318 310 308 311 315 316 320 321 321
302 301 299 298 298 299 300 302 302 302 304 306 309 313 316 317 320 323 316 311 311 312 314 316 321 326 326 325 325 325 323 322 319 319 321 321 317 311 309 314 316 317 316
300 298 297 298 297 297 297 298 299 298 299 302 304 306 310 312 312 312 308 307 304 303 305 307 309 310 312 312 312 319 322 322 321 319 317 315 316 315 312 307 311 313 314
297 296 297 296 295 294 294 294 295 295 296 295 297 298 300 303 302 301 301 300 300 299 299 302 302 302 302 303 308 310 309 310 309 309 308 310 309 309 310 309 310 310 312
295 294 293 292 292 292 292 293 292 292 292 291 292 295 295 295 295 295 295 295 294 294 295 297 297 297 298 300 302 301 301 300 298 299 299 301 299 301 301 303 299 301 305
295 293 292 292 292 292 291 290 289 290 290 289 288 290 291 291 291 291 291 291 291 291 292 293 292 292 294 295 294 295 296 296 295 293 295 295 294 295 296 296 295 293 297
294 293 292 291 290 289 289 289 288 289 289 287 286 286 287 287 286 287 287 287 288 290 290 290 289 290 290 291 291 291 292 292 292 291 292 291 292 294 292 291 291 289 286
292 291 289 288 288 288 288 288 287 286 286 285 285 285 285 285 285 285 285 285 286 287 287 287 288 287 287 288 289 288 290 289 290 290 289 290 290 290 291 291 291 290 287
292 290 288 287 286 286 286 286 285 285 285 284 284 284 283 283 283 283 283 284 284 285 285 286 286 286 286 287 287 287 288 288 288 289 288 287 287 287 287 288 287 287 286
290 289 287 285 285 285 284 285 283 283 283 283 282 282 282 282 281 281 281 282 283 284 284 285 284 284 285 285 285 286 286 286 286 286 286 284 285 283 284 285 284 284 284
289 288 286 285 284 283 283 283 282 282 282 282 281 280 280 280 280 280 280 281 281 282 283 283 283 283 284 283 284 285 285 284 284 284 282 282 282 282 282 282 281 282 282
291 288 287 285 284 283 282 282 282 281 281 280 280 279 279 279 279 280 280 280 281 281 281 282 283 283 283 282 283 283 283 283 283 283 283 281 281 279 279 280 280 280 280
291 289 287 287 284 282 281 281 281 280 280 279 278 278 278 278 278 279 279 279 279 280 280 280 281 282 282 282 280 281 281 280 280 280 280 280 279 280 280 280 279 278 278
292 291 289 288 285 283 281 281 279 279 279 278 277 277 278 278 278 278 278 278 278 279 279 278 278 279 281 282 282 280 278 278 278 277 278 278 277 278 280 280 280 279 277
293 292 291 289 288 283 282 280 278 279 277 277 277 277 277 277 277 277 277 277 276 277 277 277 277 277 279 282 280 280 278 277 276 276 276 277 276 277 278 278 278 277 278
295 295 293 290 288 284 281 279 278 278 277 276 277 277 277 276 276 277 276 276 276 276 276 276 277 276 279 281 279 279 277 276 276 275 275 275 274 277 277 275 274 274 275
296 296 294 290 284 281 279 278 277 277 276 276 276 276 276 275 275 275 275 276 276 276 276 276 275 275 276 280 279 276 275 275 274 275 275 274 274 277 278 274 271 272 273
295 293 287 280 279 277 278 277 277 276 275 276 276 276 276 275 275 275 275 275 276 276 276 275 275 274 274 278 279 276 275 273 272 273 273 274 275 276 276 271 270 270 270
282 280 279 279 278 277 278 276 275 275 276 276 275 275 275 274 274 274 274 274 274 274 273 273 273 273 273 275 277 277 274 273 271 271 271 271 274 275 274 273 271 270 269
277 277 276 274 275 277 277 275 274 275 274 273 273 273 273 274 273 273 273 273 273 272 271 270 270 271 272 274 275 275 275 274 269 270 270 270 273 272 271 270 271 270 267
274 275 274 274 275 276 276 274 273 273 272 271 271 271 272 272 272 271 271 271 271 270 270 269 267 268 270 270 273 273 273 273 270 271 270 269 269 269 267 268 268 265 262
273 272 272 272 272 274 275 273 272 272 271 270 269 270 270 269 271 271 271 270 268 268 268 267 265 266 267 268 270 271 270 271 269 266 263 265 266 265 264 263 262 262 261
272 272 272 271 271 271 270 271 270 270 269 269 268 269 269 269 269 269 269 269 269 268 265 264 265 262 263 267 272 271 270 268 269 257 256 257 259 259 259 259 259 259 259
271 270 270 270 268 268 267 267 268 269 268 268 268 268 268 268 267 267 268 271 271 272 271 271 268 268 269 270 271 271 271 269 268 251 249 253 256 256 256 256 256 257 256
Wind_Speed
7 3 7 6 6 7 8 8 8 7 6 3 3 4 4 4 4 6 9 10 7 7 4 4 6 5 7 8 5 4 4 4 3 2 6 6 8 10 9 9 8 11 11
5 7 7 7 7 5 6 7 7 7 5 4 3 4 3 3 3 4 8 8 9 8 7 4 4 5 6 4 5 5 4 3 4 3 2 3 3 6 8 7 8 8 5
9 7 7 6 5 7 7 7 7 7 5 7 5 3 1 1 1 2 2 1 1 1 3 5 5 4 4 5 5 4 7 6 4 6 4 3 4 2 3 3 3 4 5
5 7 7 6 5 5 6 7 6 6 6 7 5 3 0 2 4 6 7 8 11 10 9 9 8 3 2 4 4 4 5 4 5 3 7 10 5 3 2 1 2 4 5
11 9 8 7 6 6 5 4 5 6 6 6 6 4 6 6 5 6 10 9 9 11 10 9 9 8 6 7 8 6 4 2 3 3 2 2 2 2 1 7 3 2 4
9 8 7 7 6 6 6 5 7 6 7 7 7 9 9 7 6 7 6 5 6 6 9 7 7 8 7 7 7 8 9 7 9 7 8 7 5 5 4 4 5 5 4
9 8 8 6 6 6 4 5 6 6 7 8 10 9 9 9 8 6 5 6 5 6 8 8 9 7 8 7 8 8 9 8 7 7 6 7 7 5 3 3 3 3 3
8 8 8 7 7 6 5 5 6 6 6 7 8 8 9 6 6 8 6 6 6 5 6 7 7 8 8 8 8 7 7 6 7 10 8 6 6 5 5 4 6 5 3
9 10 8 7 7 6 6 6 6 5 6 6 6 7 7 8 6 7 6 5 4 5 6 6 7 8 8 8 8 7 7 7 7 8 8 7 6 6 7 6 4 2 4
8 8 7 8 6 6 6 7 6 6 5 6 5 5 6 6 6 6 6 6 5 5 6 6 8 9 9 8 7 6 7 7 5 5 8 8 6 7 5 5 4 4 4
10 9 8 7 7 6 6 6 6 6 5 5 5 6 6 6 6 5 5 5 5 5 6 7 9 9 9 9 7 8 8 8 7 8 10 9 8 6 6 5 4 4 3
9 9 9 9 8 8 7 7 6 6 5 6 5 5 6 6 6 5 5 5 5 6 6 8 9 9 8 7 8 8 7 8 9 8 9 8 7 8 7 5 7 5 5
9 9 10 12 11 9 7 7 7 6 6 6 6 6 5 5 5 5 5 5 5 6 6 8 8 8 8 7 7 7 7 8 8 9 9 9 7 7 6 6 6 5 6
14 14 12 12 11 10 9 9 8 6 6 6 6 6 5 5 5 5 5 5 5 6 6 7 8 8 8 8 7 8 8 8 9 8 8 8 9 9 8 7 7 7 6
14 14 13 13 12 12 11 9 8 7 7 7 7 6 6 6 5 5 5 5 5 6 6 6 7 8 8 7 6 6 7 7 7 7 7 8 10 14 12 6 8 8 7
17 18 16 15 16 17 15 12 10 8 8 8 7 7 6 6 6 5 5 6 5 5 5 7 6 6 6 13 13 8 6 7 7 6 6 5 9 10 14 15 14 11 9
16 18 19 21 18 18 16 16 13 9 8 8 7 7 7 6 6 5 5 6 6 5 6 6 6 6 5 13 12 11 7 7 6 7 7 6 7 8 9 12 12 11 12
19 20 16 13 15 16 14 13 13 11 9 8 8 8 8 8 7 7 7 6 4 6 5 6 6 5 6 13 12 11 5 6 7 7 7 8 9 10 10 9 9 9 8
15 17 15 13 10 15 15 15 13 12 11 9 9 8 7 8 7 8 6 5 5 5 6 7 6 6 4 12 14 9 5 7 7 6 7 8 9 14 15 9 8 8 8
10 10 9 8 13 12 15 15 13 12 11 9 9 8 7 7 8 8 7 4 4 6 5 7 6 6 4 11 12 9 4 5 5 4 5 9 12 14 15 9 8 8 11
3 7 13 15 14 15 15 14 13 12 11 10 9 7 7 7 6 7 5 4 6 6 4 6 4 5 4 5 11 12 6 5 4 3 4 6 14 14 14 13 9 12 12
7 7 10 10 10 13 14 14 14 12 12 11 10 8 7 6 6 7 6 5 5 7 5 5 3 4 4 6 9 11 9 8 3 4 5 7 13 12 12 11 17 18 12
4 5 10 12 9 8 10 13 11 12 12 11 9 8 7 7 6 7 6 4 5 5 5 4 3 3 3 3 7 8 8 7 5 4 8 9 9 11 9 15 16 10 6
8 7 10 8 8 8 9 10 12 12 12 11 10 9 7 7 6 6 6 5 4 5 4 4 3 3 2 1 2 2 2 4 5 6 5 7 7 9 8 6 9 7 7
4 9 12 10 8 7 10 11 11 11 11 10 9 9 7 8 7 5 5 5 4 5 5 3 4 3 2 2 3 2 1 2 5 4 3 2 3 3 4 4 4 5 6
5 4 4 13 11 10 8 8 9 9 10 9 8 7 6 6 6 6 6 10 8 9 10 10 6 2 1 3 4 4 6 7 8 5 2 2 3 4 4 4 5 5 6
Wind_Direction
255 77 87 73 66 42 38 25 10 354 351 334 325 280 220 195 205 208 212 209 206 226 234 246 235 203 220 235 217 198 214 243 219 235 252 249 242 247 247 246 250 248 247
227 130 104 72 59 52 33 22 12 2 357 347 297 253 250 216 177 186 200 192 188 197 226 219 239 227 224 223 214 201 220 223 193 225 237 257 286 247 244 244 246 258 265
212 155 115 94 68 49 29 25 23 4 350 332 310 303 266 350 120 164 146 144 190 257 253 251 230 224 214 215 215 211 220 240 221 211 231 267 233 248 247 277 303 283 273
135 134 129 102 96 66 44 37 29 5 350 335 338 327 191 128 33 66 70 64 59 49 35 37 23 350 270 234 232 219 232 234 243 226 225 234 243 263 352 226 268 251 261
142 140 131 122 92 73 59 51 50 20 355 1 17 20 62 73 63 70 72 60 53 48 44 30 35 35 35 34 30 10 336 315 271 265 307 52 301 309 337 294 275 287 270
124 115 111 103 87 65 54 51 52 24 16 22 31 51 55 64 65 57 72 67 64 50 41 40 51 45 47 32 34 42 35 37 51 20 32 27 18 7 347 299 305 288 279
136 139 132 118 106 87 69 78 62 41 29 34 37 44 60 63 67 70 67 69 59 46 33 44 48 40 35 39 51 52 49 46 54 42 39 45 46 32 357 327 317 309 313
149 145 148 141 135 114 99 91 78 60 50 52 43 41 51 66 63 65 71 63 66 53 36 50 54 45 42 50 56 53 58 53 56 57 46 57 50 39 34 22 359 324 317
162 156 150 143 136 138 131 125 109 83 64 64 58 51 52 60 63 54 59 57 42 64 44 50 56 56 51 51 60 52 53 53 56 48 56 54 34 42 37 38 31 343 335
163 157 145 147 159 150 139 125 122 114 106 89 77 67 61 61 60 57 55 52 42 45 54 55 63 54 49 46 64 65 53 61 57 62 59 56 44 50 37 32 13 36 1
173 164 160 163 159 156 153 146 139 129 113 99 97 91 80 68 63 64 51 53 50 44 59 65 74 63 53 47 50 55 61 66 64 59 60 56 47 42 36 25 16 3 352
165 168 169 167 169 172 170 161 147 134 132 123 102 90 90 84 76 66 57 50 57 49 56 72 71 67 65 57 60 65 61 62 60 63 63 52 49 43 30 28 15 0 333
172 180 179 185 180 180 172 160 152 152 141 127 121 109 98 95 95 87 72 66 73 69 72 87 81 73 66 63 66 76 75 68 60 57 58 57 41 46 23 24 5 353 334
188 194 194 193 184 182 173 167 164 160 148 133 129 125 121 119 110 103 93 85 82 88 82 95 86 76 67 61 52 65 69 68 62 54 61 56 47 38 17 18 2 356 341
204 203 199 195 188 179 174 171 162 160 153 147 146 145 137 126 117 112 102 88 94 96 91 88 89 81 70 64 56 62 74 72 73 61 53 64 45 29 21 15 6 0 353
212 207 205 196 193 186 179 172 166 162 157 156 153 144 137 130 124 118 118 108 100 94 93 95 81 80 71 67 71 70 71 68 65 63 54 70 47 15 13 17 11 13 360
219 216 209 206 198 188 173 175 163 150 151 151 150 146 138 129 127 125 113 112 107 99 88 94 101 80 78 75 75 74 69 70 63 57 49 49 28 3 5 10 7 8 360
224 226 220 206 194 181 172 149 150 152 151 150 152 150 148 146 141 137 134 127 126 121 116 103 97 78 70 69 67 71 65 70 61 56 45 41 19 4 6 5 3 356 345
233 224 211 198 164 168 158 146 148 149 153 160 161 161 153 149 146 143 141 128 134 120 123 115 109 99 43 67 69 59 48 64 48 50 48 37 15 3 9 19 355 349 355
226 207 153 135 148 155 149 146 150 152 160 158 159 158 156 146 153 150 135 126 145 130 132 126 118 112 67 69 58 77 56 57 36 34 44 25 10 9 11 28 353 353 357
165 122 145 159 157 150 148 148 149 157 151 141 134 140 143 140 151 126 125 145 134 123 115 125 108 113 83 60 58 57 54 51 39 18 17 14 2 8 9 17 358 2 4
130 129 129 134 141 149 148 150 155 140 134 134 141 152 147 149 158 135 135 166 154 132 118 114 105 105 73 75 57 47 45 41 61 27 16 357 358 6 9 9 4 7 4
123 122 132 134 138 144 151 147 141 139 136 137 144 144 145 143 148 148 150 162 141 126 129 143 142 109 84 51 52 41 34 19 43 22 10 356 6 14 17 5 4 8 356
149 137 133 141 146 145 146 136 144 142 140 143 150 146 146 150 165 157 153 152 135 124 150 148 130 107 104 48 296 161 91 34 56 50 24 16 25 22 19 6 359 351 354
165 162 150 142 144 128 126 133 136 140 144 148 151 154 155 159 148 139 141 135 137 156 155 142 142 135 124 248 343 48 114 118 76 82 48 12 21 11 4 356 339 340 338
150 165 161 139 135 127 119 117 131 144 149 148 150 153 154 155 150 149 138 150 148 149 141 133 139 122 97 0 341 9 9 28 42 55 64 10 12 359 341 333 331 330 328